Location: Aulnoy
(48.8410°N, 3.0967°E)
Time: 06:51:17
(UTC+00:00)

Meteor 2-2 Rocket - Pass Details

Date: 09 February 2023
Orbit: 853 x 927 km, 81.3° (Epoch: 24 March)

Event Time Altitude Azimuth Distance (km) Brightness Sun altitude
Rises 19:18:15 0° 347° (NNW) 3,444 7.6 -23.4°
Reaches altitude 10° 19:20:40 10° 346° (NNW) 2,509 6.9 -23.8°
Maximum altitude 19:26:21 77° 261° (W) 896 4.3 -24.8°
Drops below altitude 10° 19:32:06 10° 176° (S) 2,533 6.6 -25.7°
Sets 19:34:33 0° 175° (S) 3,479 7.3 -26.1°
